WetterOnline ( http://www.wetteronline.de )

Wetter aktuell Hamburg

Aktuelles Wetter: Quickborn (17m)

6-stündlich | Neueste Meldungen
Ortszeit Temperatur Wetter
Di, 19.02. 1:00 0.9° C bedeckt
Mo, 18.02. 19:00 5.3° C leicht bewölkt
Mo, 18.02. 13:00 13.3° C wolkenlos
Mo, 18.02. 7:00 -0.5° C fast wolkenlos
Mo, 18.02. 1:00 3.1° C wolkig
So, 17.02. 19:00 8.7° C wolkig
So, 17.02. 13:00 13.0° C wolkenlos
So, 17.02. 7:00 7.8° C bedeckt
Ortszeit Temperatur Wetter
Di, 19.02. 1:00 0.9° C bedeckt
Di, 19.02. 0:40 0.6° C bedeckt
Di, 19.02. 0:30 1.0° C bedeckt
Di, 19.02. 0:20 1.0° C bedeckt
Di, 19.02. 0:10 0.5° C bedeckt
Di, 19.02. 0:00 0.9° C bedeckt
Mo, 18.02. 23:50 0.9° C bedeckt
Mo, 18.02. 23:30 1.4° C bedeckt
Mo, 18.02. 23:00 1.1° C bedeckt
Mo, 18.02. 22:30 0.9° C wolkig
Mo, 18.02. 22:00 0.6° C wolkig
Ortszeit Relative Feuchte Sichtweite
Di, 19.02. 1:00 92% 12 km
Mo, 18.02. 19:00 79% 19 km
Mo, 18.02. 13:00 53% 19 km
Mo, 18.02. 7:00 94% 6 km
Mo, 18.02. 1:00 90% 8 km
So, 17.02. 19:00 66% 21 km
So, 17.02. 13:00 54% 15 km
So, 17.02. 7:00 81% 13 km
Ortszeit Relative Feuchte Sichtweite
Di, 19.02. 1:00 92% 12 km
Di, 19.02. 0:40 93% -
Di, 19.02. 0:30 93% 11 km
Di, 19.02. 0:20 93% -
Di, 19.02. 0:10 92% -
Di, 19.02. 0:00 92% 13 km
Mo, 18.02. 23:50 92% -
Mo, 18.02. 23:30 91% 14 km
Mo, 18.02. 23:00 93% 10 km
Mo, 18.02. 22:30 93% 9 km
Mo, 18.02. 22:00 92% 9 km
Ortszeit Niederschlagsmenge Niederschlagsart
Di, 19.02. 1:00 0.0 l/m2 in 6 Std. -
Mo, 18.02. 19:00 0.0 l/m2 in 12 Std. -
Mo, 18.02. 13:00 0.0 l/m2 in 6 Std. -
Mo, 18.02. 7:00 0.0 l/m2 in 12 Std. -
Mo, 18.02. 1:00 0.0 l/m2 in 6 Std. -
So, 17.02. 19:00 0.0 l/m2 in 12 Std. -
So, 17.02. 13:00 0.0 l/m2 in 6 Std. -
So, 17.02. 7:00 0.0 l/m2 in 12 Std. -
Ortszeit Niederschlagsmenge Niederschlagsart
Di, 19.02. 1:00 0.0 l/m2 in 1 Std. -
Di, 19.02. 0:40 keine Meldung -
Di, 19.02. 0:30 0.0 l/m2 in 1 Std. -
Di, 19.02. 0:20 keine Meldung -
Di, 19.02. 0:10 keine Meldung -
Di, 19.02. 0:00 0.0 l/m2 in 1 Std. -
Mo, 18.02. 23:50 keine Meldung -
Mo, 18.02. 23:30 0.0 l/m2 in 1 Std. -
Mo, 18.02. 23:00 0.0 l/m2 in 1 Std. -
Mo, 18.02. 22:30 0.0 l/m2 in 1 Std. -
Mo, 18.02. 22:00 0.0 l/m2 in 1 Std. -
Ortszeit Stärke Spitze Richtung
km/h Bft. km/h Grad Sektor
Di, 19.02. 1:00 6 1 7 180° S
Mo, 18.02. 19:00 2 1 24 150° SO
Mo, 18.02. 13:00 11 2 18 180° S
Mo, 18.02. 7:00 4 1 11 170° S
Mo, 18.02. 1:00 6 1 9 160° S
So, 17.02. 19:00 7 2 18 150° SO
So, 17.02. 13:00 9 2 22 150° SO
So, 17.02. 7:00 9 2 17 180° S
Ortszeit Stärke Spitze Richtung
km/h Bft. km/h Grad Sektor
Di, 19.02. 1:00 6 1 7 180° S
Di, 19.02. 0:40 4 1 - 190° S
Di, 19.02. 0:30 6 1 7 170° S
Di, 19.02. 0:20 6 1 - 170° S
Di, 19.02. 0:10 6 1 - 180° S
Di, 19.02. 0:00 0 0 7 - -
Mo, 18.02. 23:50 0 0 - 30° NO
Mo, 18.02. 23:30 2 1 6 130° SO
Mo, 18.02. 23:00 4 1 7 180° S
Mo, 18.02. 22:30 4 1 7 140° SO
Mo, 18.02. 22:00 6 1 6 180° S
Ortszeit Untergrenze Bedeckung Gattung
total tief tief mittel hoch
Di, 19.02. 1:00 5400 m 8/8 8/8 - - -
Mo, 18.02. 19:00 9000 m 6/8 0/8 - - -
Mo, 18.02. 13:00 - 0/8 0/8 - - -
Mo, 18.02. 7:00 12000 m 1/8 0/8 - - -
Mo, 18.02. 1:00 8400 m 8/8 0/8 - - -
So, 17.02. 19:00 7800 m 8/8 0/8 - - -
So, 17.02. 13:00 - 0/8 0/8 - - -
So, 17.02. 7:00 600 m 8/8 8/8 - - -
Ortszeit Bedeckungsgrad in Achtel und Wolkenuntergrenze
Di, 19.02. 1:00 8(5400m)
Di, 19.02. 0:40 8(5400m)
Di, 19.02. 0:30 6(5100m) 8(5700m) 8(7200m)
Di, 19.02. 0:20 6(5100m) 8(5700m) 8(7200m)
Di, 19.02. 0:10 8(5400m) 8(7200m) 8(7800m)
Di, 19.02. 0:00 8(5400m) 8(7200m) 8(10500m)
Mo, 18.02. 23:50 8(5400m) 8(7200m) 8(10500m)
Mo, 18.02. 23:30 8(5400m)
Mo, 18.02. 23:00 7(5400m) 8(6000m) 8(9000m)
Mo, 18.02. 22:30 2(6000m) 8(10500m) 8(10500m)
Mo, 18.02. 22:00 6(7800m) 8(9000m) 8(10500m)
Ortszeit Luftdruck NN (hPa) Tendenz (hPa in 3 Std.)
Di, 19.02. 1:00 1013 - 0,9
Mo, 18.02. 19:00 1014 - 1,3
Mo, 18.02. 13:00 1017 - 1,7
Mo, 18.02. 7:00 1019 - 0,4
Mo, 18.02. 1:00 1019 - 0,3
So, 17.02. 19:00 1020 - 0,5
So, 17.02. 13:00 1023 - 1,2
So, 17.02. 7:00 1023 - 0,2
Ortszeit Luftdruck NN (hPa) Tendenz (hPa in 3 Std.)
Di, 19.02. 1:00 1013 - 0,9
Di, 19.02. 0:40 1013 keine Meldung
Di, 19.02. 0:30 1013 - 1,1
Di, 19.02. 0:20 1013 keine Meldung
Di, 19.02. 0:10 1013 keine Meldung
Di, 19.02. 0:00 1013 - 0,9
Mo, 18.02. 23:50 1013 keine Meldung
Mo, 18.02. 23:30 1013 - 0,9
Mo, 18.02. 23:00 1013 - 0,7
Mo, 18.02. 22:30 1014 - 0,6
Mo, 18.02. 22:00 1014 - 0,7
Ortszeit Schneehöhe (cm)
Di, 19.02. 1:00 0
Mo, 18.02. 19:00 0
Mo, 18.02. 13:00 0
Mo, 18.02. 7:00 0
Mo, 18.02. 1:00 0
So, 17.02. 19:00 0
So, 17.02. 13:00 0
So, 17.02. 7:00 0
Ortszeit Schneehöhe (cm)
Di, 19.02. 1:00 0
Di, 19.02. 0:40 0
Di, 19.02. 0:30 0
Di, 19.02. 0:20 0
Di, 19.02. 0:10 0
Di, 19.02. 0:00 0
Mo, 18.02. 23:50 0
Mo, 18.02. 23:30 0
Mo, 18.02. 23:00 0
Mo, 18.02. 22:30 0
Mo, 18.02. 22:00 0
Link zu dieser Seite / Seite empfehlen

Das Wetter in ...